Palmer, AK

4:56 PM AKDT on October 23, 2017 (GMT -0800)
Palmer Municipal

Weather History for PAAQ - May, 2014

Change the Weather History Date:

Wednesday, May 14, 2014

  Actual Average Record
Temperature  
Mean Temperature 57 °F -  
Max Temperature 71 °F 56 °F 75 °F (2016)
Min Temperature 43 °F 37 °F 28 °F (1975)
Degree Days  
Heating Degree Days 8    
Growing Degree Days 7 (Base 50)    
Moisture  
Dew Point 20 °F    
Average Humidity 26    
Maximum Humidity 56    
Minimum Humidity 11    
Precipitation  
Precipitation 0.00 in - - ()
Sea Level Pressure  
Sea Level Pressure 30.30 in    
Wind  
Wind Speed 12 mph (NNE)    
Max Wind Speed 33 mph    
Max Gust Speed 48 mph    
Visibility 9 miles    
Events      
Averages and records for this station are not official NWS values.
T = Trace of Precipitation, MM = Missing Value Source: NWS Daily Summary

Daily Weather History Graph

Daily Weather History Graph

Search for Another Location

Airport or City:

Trip Planner

Search our weather history database for the weather conditions in past years. The results will help you decide how hot, cold, wet, or windy it might be!

Date:

Astronomy

May. 14, 2014 Rise Set
Actual Time 5:08 AM AKDT 10:39 PM AKDT
Civil Twilight 3:56 AM AKDT 11:51 PM AKDT
Nautical Twilight 2:25 AM AKDT 1:20 AM AKDT
Astronomical Twilight Sun does not rise Sun does not rise
Moon 10:46 PM AKDT (5/14) 5:32 AM AKDT (5/14)
Length of Visible Light 19h 54m
Length of Day
17h 30m
Full, 100% of the Moon is Illuminated
May 14
Full
May 21
Last Quarter
May 28
New
Jun 5
First Quarter
Jun 12
Full

Hourly Weather History & Observations

Time (AKDT) Temp. Windchill Dew Point Humidity Pressure Visibility Wind Dir Wind Speed Gust Speed Precip Events Conditions
12:53 AM 48.0 °F - 27.0 °F 44% 30.24 in 10.0 mi WNW 3.5 mph - N/A   Clear
1:53 AM 46.9 °F - 28.0 °F 48% 30.24 in 10.0 mi Calm Calm - N/A   Clear
2:53 AM 46.0 °F 43.9 °F 27.0 °F 47% 30.25 in 10.0 mi NE 4.6 mph - N/A   Clear
3:53 AM 43.0 °F 41.3 °F 28.0 °F 56% 30.27 in 10.0 mi Variable 3.5 mph - N/A   Clear
4:53 AM 46.0 °F 43.1 °F 27.0 °F 47% 30.28 in 10.0 mi North 5.8 mph - N/A   Clear
5:53 AM 52.0 °F - 18.0 °F 26% 30.29 in 10.0 mi NNE 21.9 mph 31.1 mph N/A   Clear
6:53 AM 52.0 °F - 16.0 °F 24% 30.30 in 10.0 mi NNE 21.9 mph 34.5 mph N/A   Clear
7:53 AM 54.0 °F - 15.1 °F 22% 30.29 in 10.0 mi NNE 29.9 mph 42.6 mph N/A   Widespread Dust
8:53 AM 55.0 °F - 17.1 °F 23% 30.31 in 10.0 mi NNE 33.4 mph 48.3 mph N/A   Widespread Dust
9:53 AM 57.9 °F - 17.1 °F 20% 30.31 in 10.0 mi NNE 24.2 mph 38.0 mph N/A   Widespread Dust
10:53 AM 60.1 °F - 17.1 °F 19% 30.31 in 10.0 mi NNE 27.6 mph 39.1 mph N/A   Widespread Dust
11:53 AM 63.0 °F - 17.1 °F 17% 30.31 in 10.0 mi NNE 20.7 mph 35.7 mph N/A   Widespread Dust
1:53 PM 66.9 °F - 12.9 °F 12% 30.31 in 10.0 mi NE 20.7 mph 31.1 mph N/A   Widespread Dust
2:53 PM 69.1 °F - 15.1 °F 13% 30.31 in 10.0 mi NNE 21.9 mph 28.8 mph N/A   Widespread Dust
3:53 PM 70.0 °F - 14.0 °F 12% 30.30 in 10.0 mi NNE 20.7 mph 29.9 mph N/A   Widespread Dust
4:53 PM 71.1 °F - 14.0 °F 11% 30.30 in 10.0 mi NE 19.6 mph 26.5 mph N/A   Widespread Dust
5:53 PM 71.1 °F - 14.0 °F 11% 30.30 in 10.0 mi NE 20.7 mph 26.5 mph N/A   Clear
6:53 PM 70.0 °F - 15.1 °F 12% 30.30 in 10.0 mi NNE 18.4 mph 26.5 mph N/A   Clear
7:53 PM 69.1 °F - 16.0 °F 13% 30.30 in 10.0 mi NNE 19.6 mph 25.3 mph N/A   Clear
8:53 PM 66.9 °F - 17.1 °F 15% 30.30 in 10.0 mi NNE 12.7 mph 23.0 mph N/A   Clear
9:53 PM 59.0 °F - 24.1 °F 26% 30.32 in 10.0 mi Variable 3.5 mph - N/A   Clear
10:53 PM 52.0 °F - 27.0 °F 38% 30.34 in 9.0 mi SSE 4.6 mph - N/A   Clear
11:49 PM 51.8 °F - 26.6 °F 38% 30.35 in 3.0 mi Calm Calm - N/A   Haze
11:53 PM 51.1 °F - 28.0 °F 41% 30.37 in 2.5 mi Calm Calm - N/A   Haze